EN

Hourly Weather Lahdenpohya

Today, 3 August, Tuesday

Time Temperature Precipitation Wind Pressure Humidity
00:00 +14°C° 4 mm 6 mps 743 mmHg 97%
01:00 +14°C° 4 mm 6 mps 742 mmHg 97%
02:00 +14°C° 4 mm 6 mps 742 mmHg 97%
03:00 +14°C° 2.4 mm 6 mps 741 mmHg 97%
04:00 +14°C° 2.4 mm 7 mps 741 mmHg 97%
05:00 +14°C° 2.4 mm 7 mps 741 mmHg 96%
06:00 +14°C° 0.7 mm 7 mps 741 mmHg 96%
07:00 +14°C° 0.7 mm 7 mps 741 mmHg 96%
08:00 +14°C° 0.7 mm 7 mps 742 mmHg 95%
09:00 +14°C° 0.6 mm 7 mps 742 mmHg 95%
10:00 +14°C° 0.6 mm 6 mps 743 mmHg 95%
11:00 +14°C° 0.6 mm 6 mps 744 mmHg 95%
12:00 +14°C° 0.1 mm 6 mps 744 mmHg 92%
13:00 +14°C° 0.1 mm 6 mps 745 mmHg 89%
14:00 +15°C° 0.1 mm 6 mps 746 mmHg 86%
15:00 +14°C° 0.1 mm 6 mps 746 mmHg 86%
16:00 +14°C° 0.1 mm 6 mps 747 mmHg 85%
17:00 +14°C° 0.1 mm 5 mps 747 mmHg 85%
18:00 +13°C° 0 mm 5 mps 748 mmHg 84%
19:00 +11°C° 0 mm 6 mps 748 mmHg 84%
20:00 +11°C° 0 mm 6 mps 749 mmHg 83%
21:00 +11°C° 0 mm 6 mps 750 mmHg 81%
22:00 +12°C° 0 mm 5 mps 750 mmHg 78%
23:00 +12°C° 0 mm 5 mps 751 mmHg 75%

Tomorrow, 4 August, Wednesday

Time Temperature Precipitation Wind Pressure Humidity
00:00 +12°C° 0 mm 5 mps 751 mmHg 73%
01:00 +12°C° 0 mm 5 mps 751 mmHg 70%
02:00 +12°C° 0 mm 5 mps 752 mmHg 67%
03:00 +10°C° 0 mm 5 mps 752 mmHg 70%
04:00 +10°C° 0 mm 5 mps 753 mmHg 73%
05:00 +10°C° 0 mm 4 mps 753 mmHg 75%
06:00 +12°C° 0 mm 4 mps 753 mmHg 69%
07:00 +14°C° 0 mm 5 mps 754 mmHg 62%
08:00 +16°C° 0 mm 5 mps 754 mmHg 55%
09:00 +17°C° 0 mm 5 mps 755 mmHg 51%
10:00 +19°C° 0 mm 5 mps 755 mmHg 46%
11:00 +20°C° 0 mm 5 mps 755 mmHg 41%
12:00 +20°C° 0 mm 4 mps 755 mmHg 40%
13:00 +20°C° 0 mm 4 mps 756 mmHg 40%
14:00 +20°C° 0 mm 3 mps 756 mmHg 40%
15:00 +20°C° 0 mm 3 mps 756 mmHg 41%
16:00 +20°C° 0 mm 3 mps 757 mmHg 42%
17:00 +20°C° 0 mm 3 mps 757 mmHg 43%
18:00 +18°C° 0 mm 3 mps 757 mmHg 50%
19:00 +17°C° 0 mm 3 mps 757 mmHg 57%
20:00 +15°C° 0 mm 2 mps 758 mmHg 65%
21:00 +14°C° 0 mm 3 mps 758 mmHg 66%
22:00 +13°C° 0 mm 3 mps 758 mmHg 68%
23:00 +13°C° 0 mm 3 mps 758 mmHg 70%

Day after tomorrow, 5 August, Thursday

Time Temperature Precipitation Wind Pressure Humidity
00:00 +13°C° 0 mm 3 mps 759 mmHg 71%
01:00 +14°C° 0 mm 2 mps 759 mmHg 72%
02:00 +14°C° 0 mm 2 mps 759 mmHg 73%
03:00 +14°C° 0 mm 2 mps 759 mmHg 73%
04:00 +14°C° 0 mm 2 mps 759 mmHg 73%
05:00 +14°C° 0 mm 2 mps 759 mmHg 74%
06:00 +15°C° 0 mm 2 mps 760 mmHg 69%
07:00 +16°C° 0 mm 2 mps 760 mmHg 64%
08:00 +17°C° 0 mm 2 mps 760 mmHg 59%
09:00 +19°C° 0 mm 2 mps 760 mmHg 52%
10:00 +20°C° 0 mm 2 mps 760 mmHg 45%
11:00 +21°C° 0 mm 2 mps 760 mmHg 38%
12:00 +21°C° 0 mm 2 mps 760 mmHg 43%
13:00 +20°C° 0 mm 2 mps 760 mmHg 47%
14:00 +19°C° 0 mm 3 mps 760 mmHg 52%
15:00 +19°C° 0 mm 2 mps 760 mmHg 55%
16:00 +18°C° 0 mm 2 mps 760 mmHg 57%
17:00 +18°C° 0 mm 2 mps 760 mmHg 60%
18:00 +17°C° 0 mm 2 mps 760 mmHg 64%
19:00 +16°C° 0 mm 1 mps 760 mmHg 67%
20:00 +15°C° 0 mm 1 mps 760 mmHg 70%
21:00 +15°C° 0 mm 1 mps 760 mmHg 67%
22:00 +15°C° 0 mm 1 mps 760 mmHg 65%
23:00 +15°C° 0 mm 1 mps 760 mmHg 62%

6 August, Friday

Time Temperature Precipitation Wind Pressure Humidity
00:00 +15°C° 0 mm 1 mps 760 mmHg 62%
01:00 +14°C° 0 mm 2 mps 760 mmHg 63%
02:00 +14°C° 0 mm 2 mps 760 mmHg 64%
03:00 +14°C° 0 mm 2 mps 760 mmHg 65%
04:00 +14°C° 0 mm 2 mps 760 mmHg 67%
05:00 +13°C° 0 mm 3 mps 761 mmHg 69%
06:00 +14°C° 0 mm 3 mps 761 mmHg 65%
07:00 +17°C° 0 mm 3 mps 761 mmHg 61%
08:00 +18°C° 0 mm 3 mps 761 mmHg 56%
09:00 +19°C° 0 mm 3 mps 761 mmHg 51%
10:00 +20°C° 0 mm 3 mps 761 mmHg 45%
11:00 +22°C° 0 mm 3 mps 760 mmHg 40%
12:00 +22°C° 0 mm 3 mps 760 mmHg 38%
13:00 +22°C° 0 mm 3 mps 760 mmHg 36%
14:00 +24°C° 0 mm 3 mps 760 mmHg 34%
15:00 +24°C° 0 mm 2 mps 760 mmHg 35%
16:00 +23°C° 0 mm 2 mps 760 mmHg 37%
17:00 +23°C° 0 mm 2 mps 760 mmHg 39%
18:00 +21°C° 0 mm 2 mps 760 mmHg 45%
19:00 +19°C° 0 mm 3 mps 760 mmHg 51%
20:00 +17°C° 0 mm 3 mps 760 mmHg 57%
21:00 +15°C° 0 mm 4 mps 760 mmHg 61%
22:00 +14°C° 0 mm 4 mps 760 mmHg 65%
23:00 +13°C° 0 mm 4 mps 760 mmHg 69%

7 August, Saturday

Time Temperature Precipitation Wind Pressure Humidity
00:00 +13°C° 0 mm 5 mps 760 mmHg 71%
01:00 +13°C° 0 mm 5 mps 760 mmHg 72%
02:00 +12°C° 0 mm 5 mps 760 mmHg 74%
03:00 +13°C° 0 mm 6 mps 759 mmHg 74%
04:00 +12°C° 0 mm 7 mps 759 mmHg 73%
05:00 +12°C° 0 mm 7 mps 759 mmHg 73%
06:00 +13°C° 0 mm 8 mps 758 mmHg 70%
07:00 +15°C° 0 mm 8 mps 758 mmHg 67%
08:00 +16°C° 0 mm 9 mps 757 mmHg 64%
09:00 +17°C° 0.1 mm 8 mps 757 mmHg 65%
10:00 +17°C° 0.1 mm 8 mps 757 mmHg 65%
11:00 +18°C° 0.1 mm 8 mps 756 mmHg 65%
12:00 +17°C° 1 mm 8 mps 756 mmHg 74%
13:00 +16°C° 1 mm 8 mps 756 mmHg 83%
14:00 +15°C° 1 mm 8 mps 756 mmHg 91%
15:00 +13°C° 1 mm 8 mps 755 mmHg 93%
16:00 +13°C° 1 mm 8 mps 755 mmHg 94%
17:00 +13°C° 1 mm 8 mps 755 mmHg 96%
18:00 +13°C° 1.1 mm 8 mps 755 mmHg 96%
19:00 +14°C° 1.1 mm 7 mps 755 mmHg 97%
20:00 +14°C° 1.1 mm 7 mps 754 mmHg 97%
21:00 +14°C° 0.6 mm 7 mps 754 mmHg 97%
22:00 +14°C° 0.6 mm 7 mps 754 mmHg 97%
23:00 +14°C° 0.6 mm 7 mps 754 mmHg 98%

8 August, Sunday

Time Temperature Precipitation Wind Pressure Humidity
00:00 +14°C° 0.7 mm 6 mps 754 mmHg 98%
01:00 +15°C° 0.7 mm 6 mps 754 mmHg 98%
02:00 +15°C° 0.7 mm 5 mps 754 mmHg 98%
03:00 +15°C° 0 mm 5 mps 754 mmHg 98%
04:00 +15°C° 0 mm 4 mps 754 mmHg 98%
05:00 +15°C° 0 mm 4 mps 754 mmHg 98%
06:00 +16°C° 0 mm 3 mps 754 mmHg 97%
07:00 +17°C° 0 mm 3 mps 754 mmHg 95%
08:00 +17°C° 0 mm 3 mps 754 mmHg 94%
09:00 +17°C° 0 mm 3 mps 755 mmHg 91%
10:00 +18°C° 0 mm 3 mps 755 mmHg 88%
11:00 +18°C° 0 mm 3 mps 755 mmHg 85%
12:00 +19°C° 0 mm 3 mps 755 mmHg 82%
13:00 +19°C° 0 mm 2 mps 756 mmHg 80%
14:00 +20°C° 0 mm 2 mps 756 mmHg 77%
15:00 +20°C° 0.1 mm 2 mps 756 mmHg 77%
16:00 +20°C° 0.1 mm 2 mps 756 mmHg 77%
17:00 +21°C° 0.1 mm 2 mps 756 mmHg 77%
18:00 +19°C° 0.1 mm 2 mps 757 mmHg 83%
19:00 +18°C° 0.1 mm 2 mps 757 mmHg 90%
20:00 +17°C° 0.1 mm 2 mps 757 mmHg 96%
21:00 +16°C° 0 mm 2 mps 757 mmHg 96%
22:00 +16°C° 0 mm 1 mps 757 mmHg 97%
23:00 +15°C° 0 mm 1 mps 758 mmHg 97%
Show more